This demonstration page uses our WeatherBlox Daily Observations layout. Learn more.

Left ArrowRight Arrow

Hourly Observations for September 27, 2021

Temp ( °F °C ) Dew Point ( °F °C ) Humidity (%) Winds ( mph kmh ) Pressure ( in mb ) Visibility ( mi km ) Precip ( " mm )
12:52 am 00:52 Clear 69 20.6 52 11.1 55 55 SSE 12 19 29.70 1006 10 16 0.00 0.00
1:52 am 01:52 Clear 68 20 52 11.1 57 57 SE 9 15 29.70 1006 10 16 0.00 0.00
2:52 am 02:52 Clear 64 17.8 50 10 60 60 SSE 9 15 29.71 1006 10 16 0.00 0.00
3:52 am 03:52 Clear 63 17.2 50 10 63 63 SSE 8 13 29.71 1006 10 16 0.00 0.00
4:52 am 04:52 Clear 62 16.7 49 9.4 62 62 SE 7 11 29.72 1007 10 16 0.00 0.00
5:52 am 05:52 Clear 60 15.6 49 9.4 67 67 SE 7 11 29.74 1007 10 16 0.00 0.00
6:52 am 06:52 Clear 59 15 49 9.4 69 69 SSE 5 7 29.75 1008 10 16 0.00 0.00
7:52 am 07:52 Sunny 59 15 51 10.6 75 75 SE 8 13 29.76 1008 10 16 0.00 0.00
8:52 am 08:52 Sunny 67 19.4 51 10.6 57 57 Calm 29.78 1009 10 16 0.00 0.00
9:52 am 09:52 Sunny 71 21.7 52 11.1 51 51 W 5 7 29.80 1009 10 16 0.00 0.00
10:52 am 10:52 Sunny 76 24.4 54 12.2 47 47 W 3 6 29.80 1009 10 16 0.00 0.00
11:52 am 11:52 Sunny 80 26.7 57 13.9 45 45 VRB 5 7 29.80 1009 10 16 0.00 0.00
12:52 pm 12:52 Sunny 87 30.6 58 14.4 37 37 NW 8 13 29.80 1009 10 16 0.00 0.00
1:52 pm 13:52 Sunny 90 32.2 57 13.9 33 33 Calm 29.79 1009 10 16 0.00 0.00
2:52 pm 14:52 Sunny 92 33.3 56 13.3 30 30 ENE 8 13 29.78 1009 10 16 0.00 0.00
3:52 pm 15:52 Sunny 91 32.8 56 13.3 31 31 Calm 29.78 1009 10 16 0.00 0.00
4:52 pm 16:52 Sunny 93 33.9 55 12.8 28 28 NE 7 11 29.78 1008 10 16 0.00 0.00
5:52 pm 17:52 Sunny 92 33.3 55 12.8 29 29 NE 3 6 29.78 1009 10 16 0.00 0.00
6:52 pm 18:52 Sunny 86 30 63 17.2 46 46 ENE 3 6 29.80 1009 10 16 0.00 0.00
7:52 pm 19:52 Clear 75 23.9 61 16.1 62 62 NW 6 9 29.82 1010 10 16 0.00 0.00
8:52 pm 20:52 Clear 69 20.6 61 16.1 76 76 NW 6 9 29.83 1010 10 16 0.00 0.00
9:52 pm 21:52 Clear 70 21.1 60 15.6 71 71 NW 3 6 29.83 1010 10 16 0.00 0.00
10:52 pm 22:52 Clear 69 20.6 59 15 70 70 WNW 5 7 29.84 1010 10 16 0.00 0.00
11:52 pm 23:52 Clear 63 17.2 58 14.4 84 84 NW 6 9 29.84 1011 10 16 0.00 0.00

Powered by AerisWeather